timestamp,wind_dir_avg,wind_spd_avg,wind_spd_max_dir,wind_spd_gust,battery_voltage,lat,long
2021-08-28 00:04:01+00:00,213.0,9.37,217.0,10.38,12.65,47.59359,-54.27349
2021-08-28 00:14:01+00:00,207.0,8.98,208.0,9.93,12.65,47.59359,-54.27349
2021-08-28 00:24:01+00:00,218.0,8.64,218.0,10.06,12.65,47.59359,-54.27349
2021-08-28 00:34:01+00:00,214.0,7.93,216.0,8.75,12.65,47.59359,-54.27349
2021-08-28 00:44:01+00:00,215.0,7.36,219.0,8.14,12.65,47.59359,-54.27349
2021-08-28 00:54:01+00:00,229.0,8.2,220.0,10.34,12.65,47.59359,-54.27349
2021-08-28 01:04:01+00:00,242.0,6.87,235.0,8.0,12.65,47.59359,-54.27349
2021-08-28 01:14:01+00:00,256.0,7.42,266.0,8.44,12.65,47.59359,-54.27349
2021-08-28 01:24:01+00:00,246.0,7.55,249.0,8.24,12.65,47.59359,-54.27349
2021-08-28 01:34:01+00:00,249.0,6.6,252.0,7.3,12.65,47.59359,-54.27349
2021-08-28 01:44:01+00:00,249.0,6.75,253.0,7.76,12.65,47.59359,-54.27349
2021-08-28 01:54:01+00:00,242.0,7.31,249.0,8.52,12.65,47.59359,-54.27349
2021-08-28 02:04:01+00:00,247.0,6.6,252.0,8.01,12.65,47.59359,-54.27349
2021-08-28 02:14:00+00:00,232.0,6.16,230.0,6.82,12.65,47.59359,-54.27349
2021-08-28 02:24:00+00:00,229.0,6.06,230.0,7.46,12.65,47.59359,-54.27349
2021-08-28 02:34:00+00:00,230.0,5.39,238.0,5.97,12.65,47.59359,-54.27349
2021-08-28 02:44:00+00:00,239.0,5.13,236.0,5.65,12.65,47.59359,-54.27349
2021-08-28 02:54:00+00:00,249.0,5.38,250.0,6.33,12.65,47.59359,-54.27349
2021-08-28 03:04:00+00:00,264.0,4.8,267.0,5.34,12.65,47.59359,-54.27349
2021-08-28 03:14:00+00:00,270.0,4.51,270.0,5.23,12.57,47.59359,-54.27349
2021-08-28 03:24:00+00:00,253.0,4.32,255.0,4.77,12.57,47.59359,-54.27349
2021-08-28 03:34:00+00:00,244.0,4.39,244.0,5.54,12.57,47.59359,-54.27349
2021-08-28 03:44:00+00:00,261.0,5.13,253.0,6.64,12.57,47.59359,-54.27349
2021-08-28 03:54:00+00:00,266.0,5.77,271.0,6.75,12.57,47.59359,-54.27349
2021-08-28 04:04:00+00:00,274.0,4.61,271.0,5.28,12.57,47.59359,-54.27349
2021-08-28 04:14:01+00:00,264.0,5.34,258.0,6.17,12.57,47.59359,-54.27349
2021-08-28 04:24:01+00:00,270.0,4.24,273.0,5.04,12.57,47.59359,-54.27349
2021-08-28 04:34:01+00:00,270.0,5.82,270.0,6.64,12.57,47.59359,-54.27349
2021-08-28 04:44:01+00:00,268.0,5.94,272.0,7.8,12.57,47.59359,-54.27349
2021-08-28 04:54:01+00:00,270.0,5.69,277.0,6.43,12.57,47.59359,-54.27349
2021-08-28 05:04:01+00:00,269.0,6.18,266.0,6.95,12.57,47.59359,-54.27349
2021-08-28 05:14:01+00:00,272.0,6.4,268.0,7.38,12.57,47.59359,-54.27349
2021-08-28 05:24:01+00:00,262.0,4.97,260.0,5.76,12.57,47.59359,-54.27349
2021-08-28 05:34:01+00:00,273.0,5.69,285.0,6.83,12.57,47.59359,-54.27349
2021-08-28 05:44:01+00:00,281.0,4.93,285.0,6.46,12.57,47.59359,-54.27349
2021-08-28 05:54:01+00:00,278.0,5.01,281.0,5.53,12.57,47.59359,-54.27349
2021-08-28 06:04:01+00:00,266.0,6.04,266.0,6.58,12.57,47.59359,-54.27349
2021-08-28 06:14:01+00:00,271.0,5.92,271.0,6.86,12.49,47.59359,-54.27349
2021-08-28 06:24:01+00:00,273.0,5.39,272.0,6.71,12.49,47.59359,-54.27349
2021-08-28 06:34:01+00:00,262.0,5.84,261.0,6.39,12.49,47.59359,-54.27349
2021-08-28 06:44:01+00:00,265.0,4.21,265.0,4.79,12.49,47.59359,-54.27349
2021-08-28 06:54:01+00:00,262.0,5.37,263.0,6.67,12.49,47.59359,-54.27349
2021-08-28 07:04:01+00:00,276.0,5.68,277.0,6.99,12.49,47.59359,-54.27349
2021-08-28 07:14:01+00:00,268.0,5.72,268.0,6.69,12.49,47.59359,-54.27349
2021-08-28 07:24:01+00:00,270.0,5.42,270.0,7.08,12.49,47.59359,-54.27349
2021-08-28 07:34:01+00:00,270.0,6.72,269.0,7.27,12.49,47.59359,-54.27349
2021-08-28 07:44:01+00:00,270.0,5.34,265.0,6.15,12.49,47.59359,-54.27349
2021-08-28 07:54:01+00:00,271.0,5.39,272.0,6.9,12.49,47.59359,-54.27349
2021-08-28 08:04:01+00:00,267.0,5.4,267.0,6.45,12.49,47.59359,-54.27349
2021-08-28 08:14:01+00:00,275.0,7.04,277.0,7.75,12.41,47.59359,-54.27349
2021-08-28 08:24:01+00:00,282.0,5.54,275.0,6.74,12.41,47.59359,-54.27349
2021-08-28 08:34:01+00:00,282.0,4.79,284.0,5.77,12.41,47.59359,-54.27349
2021-08-28 08:44:01+00:00,283.0,5.64,280.0,6.51,12.41,47.59359,-54.27349
2021-08-28 08:54:01+00:00,283.0,5.98,284.0,7.15,12.41,47.59359,-54.27349
2021-08-28 09:04:01+00:00,284.0,6.57,287.0,7.67,12.41,47.59359,-54.27349
2021-08-28 09:14:01+00:00,282.0,6.29,283.0,7.3,12.41,47.59359,-54.27349
2021-08-28 09:24:01+00:00,295.0,5.17,304.0,6.56,12.41,47.59359,-54.27349
2021-08-28 09:34:01+00:00,300.0,5.5,301.0,6.32,12.41,47.59359,-54.27349
2021-08-28 09:44:01+00:00,292.0,5.64,302.0,6.69,12.41,47.59359,-54.27349
2021-08-28 09:54:01+00:00,297.0,6.26,296.0,6.99,12.41,47.59359,-54.27349
2021-08-28 10:04:01+00:00,290.0,6.47,285.0,7.49,12.41,47.59359,-54.27349
2021-08-28 10:14:01+00:00,295.0,6.69,297.0,8.18,13.13,47.59359,-54.27349
2021-08-28 10:24:01+00:00,294.0,7.35,299.0,8.33,13.13,47.59359,-54.27349
2021-08-28 10:34:01+00:00,299.0,7.08,300.0,8.89,13.13,47.59359,-54.27349
2021-08-28 10:44:01+00:00,302.0,6.52,300.0,7.49,13.13,47.59359,-54.27349
2021-08-28 10:54:01+00:00,306.0,7.19,311.0,8.28,13.13,47.59359,-54.27349
2021-08-28 11:04:01+00:00,300.0,5.49,302.0,6.44,13.13,47.59359,-54.27349
2021-08-28 11:14:01+00:00,298.0,5.81,290.0,6.48,13.44,47.59359,-54.27349
2021-08-28 11:24:01+00:00,311.0,5.34,311.0,6.6,13.44,47.59359,-54.27349
2021-08-28 11:34:01+00:00,301.0,5.71,299.0,6.84,13.44,47.59359,-54.27349
2021-08-28 11:44:01+00:00,318.0,7.12,323.0,7.96,13.44,47.59359,-54.27349
2021-08-28 11:54:01+00:00,326.0,7.6,325.0,8.32,13.44,47.59359,-54.27349
2021-08-28 12:04:01+00:00,331.0,6.11,332.0,7.03,13.44,47.59359,-54.27349
2021-08-28 12:14:01+00:00,327.0,7.62,324.0,9.17,13.76,47.59359,-54.27349
2021-08-28 12:24:01+00:00,342.0,10.05,345.0,10.71,13.76,47.59359,-54.27349
2021-08-28 12:34:01+00:00,314.0,7.2,314.0,8.14,13.76,47.59359,-54.27349
2021-08-28 12:44:01+00:00,315.0,6.33,311.0,7.08,13.76,47.59359,-54.27349
2021-08-28 12:54:01+00:00,322.0,7.11,322.0,7.83,13.76,47.59359,-54.27349
2021-08-28 13:04:01+00:00,331.0,9.23,337.0,10.06,13.76,47.59359,-54.27349
2021-08-28 13:14:01+00:00,325.0,7.75,324.0,9.11,13.68,47.59359,-54.27349
2021-08-28 13:24:01+00:00,320.0,7.55,324.0,8.33,13.68,47.59359,-54.27349
2021-08-28 13:34:01+00:00,331.0,7.29,332.0,8.62,13.68,47.59359,-54.27349
2021-08-28 13:44:01+00:00,343.0,7.97,341.0,8.89,13.68,47.59359,-54.27349
2021-08-28 13:54:01+00:00,346.0,6.54,347.0,7.44,13.68,47.59359,-54.27349
2021-08-28 14:04:01+00:00,349.0,7.4,348.0,8.67,13.68,47.59359,-54.27349
2021-08-28 14:14:01+00:00,348.0,5.66,348.0,6.96,13.6,47.59359,-54.27349
2021-08-28 14:24:01+00:00,349.0,4.25,349.0,5.25,13.6,47.59359,-54.27349
2021-08-28 14:34:01+00:00,1.0,6.07,1.0,6.61,13.6,47.59359,-54.27349
2021-08-28 14:44:01+00:00,357.0,9.63,356.0,11.04,13.6,47.59359,-54.27349
2021-08-28 14:54:01+00:00,354.0,6.72,358.0,8.09,13.6,47.59359,-54.27349
2021-08-28 15:04:01+00:00,354.0,9.13,354.0,10.02,13.6,47.59359,-54.27349
2021-08-28 15:14:01+00:00,355.0,9.97,355.0,11.15,14.24,47.59359,-54.27349
2021-08-28 15:24:01+00:00,356.0,9.53,356.0,10.91,14.24,47.59359,-54.27349
2021-08-28 15:34:01+00:00,354.0,8.39,355.0,9.51,14.24,47.59359,-54.27349
2021-08-28 15:44:01+00:00,3.0,8.62,5.0,9.64,14.24,47.59359,-54.27349
2021-08-28 15:54:01+00:00,354.0,8.22,351.0,9.61,14.24,47.59359,-54.27349
2021-08-28 16:04:01+00:00,343.0,9.47,347.0,10.42,14.24,47.59359,-54.27349
2021-08-28 16:14:01+00:00,355.0,8.04,351.0,9.01,13.92,47.59359,-54.27349
2021-08-28 16:24:01+00:00,359.0,8.06,359.0,9.03,13.92,47.59359,-54.27349
2021-08-28 16:34:01+00:00,4.0,8.77,0.0,10.67,13.92,47.59359,-54.27349
2021-08-28 16:44:01+00:00,2.0,12.18,4.0,14.78,13.92,47.59359,-54.27349
2021-08-28 16:54:01+00:00,358.0,11.06,356.0,12.19,13.92,47.59359,-54.27349
2021-08-28 17:04:01+00:00,9.0,10.73,18.0,12.55,13.92,47.59359,-54.27349
2021-08-28 17:14:01+00:00,2.0,14.16,358.0,16.1,14.0,47.59359,-54.27349
2021-08-28 17:24:01+00:00,2.0,9.77,0.0,11.25,14.0,47.59359,-54.27349
2021-08-28 17:34:01+00:00,354.0,9.34,356.0,11.63,14.0,47.59359,-54.27349
2021-08-28 17:44:01+00:00,8.0,13.32,17.0,16.42,14.0,47.59359,-54.27349
2021-08-28 17:54:01+00:00,3.0,11.32,5.0,12.77,14.0,47.59359,-54.27349
2021-08-28 18:04:01+00:00,9.0,12.02,14.0,14.34,14.0,47.59359,-54.27349
2021-08-28 18:14:01+00:00,1.0,13.95,359.0,16.7,14.24,47.59359,-54.27349
2021-08-28 18:24:01+00:00,357.0,11.41,355.0,14.58,14.24,47.59359,-54.27349
2021-08-28 18:34:01+00:00,0.0,13.47,1.0,16.69,14.24,47.59359,-54.27349
2021-08-28 18:44:01+00:00,6.0,11.27,3.0,13.54,14.24,47.59359,-54.27349
2021-08-28 18:54:01+00:00,10.0,12.51,17.0,15.81,14.24,47.59359,-54.27349
2021-08-28 19:04:01+00:00,355.0,13.21,0.0,15.41,14.24,47.59359,-54.27349
2021-08-28 19:14:01+00:00,359.0,15.2,0.0,17.0,13.68,47.59359,-54.27349
2021-08-28 19:24:01+00:00,1.0,13.08,354.0,15.55,13.68,47.59359,-54.27349
2021-08-28 19:34:01+00:00,9.0,11.98,16.0,14.93,13.68,47.59359,-54.27349
2021-08-28 19:44:01+00:00,11.0,11.14,9.0,13.66,13.68,47.59359,-54.27349
2021-08-28 19:54:01+00:00,6.0,11.31,2.0,13.51,13.68,47.59359,-54.27349
2021-08-28 20:04:01+00:00,2.0,11.78,358.0,13.79,13.68,47.59359,-54.27349
2021-08-28 20:14:01+00:00,4.0,12.6,358.0,14.81,13.84,47.59359,-54.27349
2021-08-28 20:24:01+00:00,2.0,14.39,0.0,16.27,13.84,47.59359,-54.27349
2021-08-28 20:34:01+00:00,2.0,14.58,3.0,16.94,13.84,47.59359,-54.27349
2021-08-28 20:44:01+00:00,2.0,11.44,0.0,13.8,13.84,47.59359,-54.27349
2021-08-28 20:54:01+00:00,356.0,11.78,353.0,13.44,13.84,47.59359,-54.27349
2021-08-28 21:04:01+00:00,0.0,13.97,2.0,16.23,13.84,47.59359,-54.27349
2021-08-28 21:14:01+00:00,351.0,12.52,349.0,14.58,13.53,47.59359,-54.27349
2021-08-28 21:24:01+00:00,352.0,12.44,348.0,14.04,13.53,47.59359,-54.27349
2021-08-28 21:34:01+00:00,358.0,13.06,2.0,14.98,13.53,47.59359,-54.27349
2021-08-28 21:44:01+00:00,1.0,14.57,4.0,18.34,13.53,47.59359,-54.27349
2021-08-28 21:54:01+00:00,358.0,13.26,349.0,16.08,13.53,47.59359,-54.27349
2021-08-28 22:04:01+00:00,357.0,12.76,2.0,14.12,13.53,47.59359,-54.27349
2021-08-28 22:14:01+00:00,3.0,13.25,1.0,18.24,13.21,47.59359,-54.27349
2021-08-28 22:24:01+00:00,4.0,10.2,356.0,11.6,13.21,47.59359,-54.27349
2021-08-28 22:34:01+00:00,0.0,10.52,359.0,12.49,13.21,47.59359,-54.27349
2021-08-28 22:44:01+00:00,346.0,10.16,341.0,12.67,13.21,47.59359,-54.27349
2021-08-28 22:54:01+00:00,348.0,12.74,348.0,14.26,13.21,47.59359,-54.27349
2021-08-28 23:04:01+00:00,356.0,11.05,0.0,13.57,13.21,47.59359,-54.27349
2021-08-28 23:14:00+00:00,0.0,12.33,0.0,14.76,12.73,47.59359,-54.27349
2021-08-28 23:24:00+00:00,0.0,12.64,1.0,15.59,12.73,47.59359,-54.27349
2021-08-28 23:34:00+00:00,358.0,11.59,6.0,14.04,12.73,47.59359,-54.27349
2021-08-28 23:44:00+00:00,351.0,13.38,350.0,14.55,12.73,47.59359,-54.27349
2021-08-28 23:54:00+00:00,347.0,13.21,348.0,15.73,12.73,47.59359,-54.27349
